Regional Weather Roundup
Issued by NWS

Home | Current Version | Previous Version | Graphics & Text | Print | Product List | Glossary Off
Versions: 1 2 3 4 5 6 7 8 9 10 11 12 13 14 15 16 17 18 19 20 21 22 23 24 25 26 27 28 29 30 31 32 33 34 35 36 37 38 39 40 41 42 43 44 45 46 47 48 49 50

000
ASUS43 KMKX 242200
RWRWI

WISCONSIN REGIONAL WEATHER ROUNDUP
NATIONAL WEATHER SERVICE MILWAUKEE/SULLIVAN WI
400 PM CST TUE JAN 24 2017

NOTE: "FAIR" INDICATES FEW OR NO CLOUDS BELOW 12,000 FEET WITH NO
SIGNIFICANT WEATHER AND/OR OBSTRUCTIONS TO VISIBILITY.

WIZ001-002-006>008-014>016-023>028-242300-
NORTHWEST WISCONSIN

CITY           SKY/WX    TMP DP  RH WIND       PRES   REMARKS
SUPERIOR ARPT  CLOUDY    33  27  77 CALM      29.86R
ASHLAND        CLOUDY    33  26  75 NW3       29.85R
HAYWARD        CLOUDY    32  26  78 NW3       29.82S
SIREN          CLOUDY    32  27  81 CALM      29.83S
CUMBERLAND     CLOUDY    32  27  80 CALM      29.81S
RICE LAKE      CLOUDY    33  29  83 CALM      29.83R
CHETEK         CLOUDY    33  28  82 CALM      29.82S
LADYSMITH      CLOUDY    34  31  90 CALM      29.83S
EAU CLAIRE     NOT AVBL
MENOMONIE        N/A    N/A N/A N/A MISG        N/A
NEW RICHMOND   CLOUDY    32  29  87 E3        29.81F
OSCEOLA        CLOUDY    33  28  81 NE8       29.84S WCI  25
$$

WIZ003>005-009-010-017-018-242300-
NORTH CENTRAL WISCONSIN

CITY           SKY/WX    TMP DP  RH WIND       PRES   REMARKS
MANITOWISH WTR LGT RAIN  32  32  99 N3        29.79S
ARBOR VITAE    CLOUDY    37  33  86 N3        29.79S
WOODRUFF       CLOUDY    37  33  86 N3        29.79S
RHINELANDER    CLOUDY    37  31  78 CALM      29.79S
EAGLE RIVER    CLOUDY    34  32  92 NE3       29.79S
LAND O LAKES   CLOUDY    34  32  93 CALM      29.81R
PHILLIPS       CLOUDY    32  29  89 N3        29.79S
TOMAHAWK       CLOUDY    34  29  83 W3        29.80S
MEDFORD        CLOUDY    32  29  87 NE3       29.79R
MERRILL        CLOUDY    35  31  84 W5          N/A  WCI  31
$$

WIZ029-030-035-036-043>047-242300-
CENTRAL WISCONSIN

CITY           SKY/WX    TMP DP  RH WIND       PRES   REMARKS
WAUSAU         CLOUDY    35  29  78 CALM      29.79R
MOSINEE        CLOUDY    34  30  86 CALM      29.80S
MARSHFIELD     CLOUDY    34  28  79 NE3       29.78F
STEVENS POINT  CLOUDY    34  29  82 CALM      29.81S
WAUPACA        CLOUDY    38  32  79 CALM      29.82S
WAUTOMA        CLOUDY    36  30  79 CALM      29.82S
WISC RAPIDS    CLOUDY    36  30  79 NE5       29.81F WCI  32
CAMP DOUGLAS   NOT AVBL
$$

WIZ011>013-019>022-031-037>040-048>050-242300-
NORTHEAST WISCONSIN

CITY           SKY/WX    TMP DP  RH WIND       PRES   REMARKS
ANTIGO         CLOUDY    33  31  93 E3        29.79F
SHAWANO        CLOUDY    40  33  75 CALM      29.81F
OCONTO         CLOUDY    38  33  82 CALM      29.81S
STURGEON BAY   CLOUDY    37  36  96 CALM      29.82S
GREEN BAY      CLOUDY    40  35  83 W6        29.81S
MANITOWOC      NOT AVBL
APPLETON       CLOUDY    36  34  93 N3        29.80S
CLINTONVILLE   CLOUDY    37  32  81 CALM      29.81S
OSHKOSH        CLOUDY    37  31  78 NW5       29.81S WCI  33
$$

WIZ032>034-041-042-053>061-242300-
SOUTHWEST WISCONSIN

CITY           SKY/WX    TMP DP  RH WIND       PRES   REMARKS
LA CROSSE      CLOUDY    37  30  75 E3        29.80F
SPARTA         CLOUDY    34  32  90 E5        29.82S WCI  30
VIROQUA        CLOUDY    34  32  93 E6        29.78S WCI  29
BOSCOBEL       CLOUDY    37  31  78 CALM      29.80F
PRAIRIE DU CHI CLOUDY    35  31  86 SE6       29.79F WCI  30
PLATTEVILLE    CLOUDY    35  34  96 E6        29.78F WCI  30
$$

WIZ056-057-062-063-064-067-068-242300-
SOUTH CENTRAL WISCONSIN

CITY           SKY/WX    TMP DP  RH WIND       PRES   REMARKS
REEDSBURG      CLOUDY    36  31  85 E5        29.80F WCI  32
BARABOO/DELLS  CLOUDY    36  31  83 E3        29.80F
LONE ROCK      NOT AVBL
MINERAL POINT  CLOUDY    36  34  93 SE6       29.78F WCI  31
MADISON        CLOUDY    36  31  82 SE7       29.82S WCI  30
MIDDLETON      CLOUDY    37  33  82 CALM      29.82S
WATERTOWN      CLOUDY    36  33  90 CALM      29.82S
MONROE         CLOUDY    34  32  93 E5        29.79F WCI  30
JANESVILLE     CLOUDY    36  34  93 SE6       29.83S WCI  31
$$

WIZ051-052-058>065-066-070>072-242300-
SOUTHEAST WISCONSIN

CITY           SKY/WX    TMP DP  RH WIND       PRES   REMARKS
MILWAUKEE      CLOUDY    39  32  76 NW3       29.83S
WAUKESHA       CLOUDY    34  30  86 CALM      29.83S
MILWAUKEE/TIMM CLOUDY    37  30  75 CALM      29.84R
RACINE         CLOUDY    37  31  78 CALM      29.86R
KENOSHA        CLOUDY    37  32  82 CALM      29.83S
FOND DU LAC    CLOUDY    38  30  73 CALM      29.82R
SHEBOYGAN      CLOUDY    38  32  79 NW5       29.82R WCI  34
WEST BEND      CLOUDY    36  34  93 CALM      29.82S
JUNEAU         CLOUDY    35  32  90 CALM      29.83R
$$

LSZ147-162-242300-
LAKE SUPERIOR

STATION/POSITION TIME  TEMP    WIND        PRES    WAVE
                       AIR SEA DIR/SP/G            HT/PER
                 (UTC) (F)     (DEG/KT/KT) (MB)    (FT/S)
DEVILS ISLAND    2100   34     270/ 10/ 10 1010.6S
PORT WING        2130   33     260/  4/  5 1011.2R
SAXON HARBOR     2140   35     270/  4/  8 1010.5R
$$

LMZ867-665-643>646-242300-
LAKE MICHIGAN

STATION/POSITION TIME  TEMP    WIND        PRES    WAVE
                       AIR SEA DIR/SP/G            HT/PER
                 (UTC) (F)     (DEG/KT/KT) (MB)    (FT/S)
CHAMBERS ISLAND  2140   37      CALM  /  1 1009.5R
NORTHPORT PIER   2140   36     280/  5/  7 1009.8R
SISTER BAY       2035   36        CALM       N/A
KEWAUNEE LAKESHO 2130   39     320/  3/  5 1009.2R
SHEBOYGAN LAKESH 2100   39     320/  5/  6 1009.9S
PORT WASHINGTON  2130   38     270/  3/  5 1011.2R
KENOSHA   LAKESH 2100   37     310/  2/  3 1010.8
$$

TC  - TEMPERATURE IN CELSIUS
VSB - VISIBILITY IN STATUTE MILES
WCI - WIND CHILL INDEX
HX  - HEAT INDEX




USA.gov is the U.S. government's official web portal to all federal, state and local government web resources and services.